loading
|

SCOUT X-4 DEB, 40592

Orbit data source: Space-Track

SCOUT X-4 DEB, 40592 is space debris in LEO originally from a launch on Tue, 25 Aug 1964 UTC launched from the Air Force Western Test Range (AFWTR). Debris objects in space refer to the collection of defunct objects orbiting the Earth. Examples of debris include non-operational satellites, rocket bodies, and fragments generated from explosions, collisions, or faulty payload assembly.

Loading next visibility...
Loading greatness...
SCOUT X-4 DEB details
Identifier
40592, 1964-051F
Orbit
LEO
Last TLE update9 hours ago
Origin
Flag of USGSFC (US)
ManufacturerUnknown
MissionSpacecraft
Bus & MotorUnknown bus, Unknown motor
MassUnknown
Launch date (UTC)
1964-08-25 (60 years ago)
Launch vehicleUnknown
Launch site
Air Force Western Test Range (AFWTR)
Object type
Payload
Rocket body
Debris
Shape & HBRUnknown
Radar Cross SectionSmall (<0.1 m²)

Expand to show TLE details & history

TLE from 9 hours ago
0 SCOUT X-4 DEB
1 40592U 64051F   24283.02275157  .00251359  00000-0  39235-1 0  9992
2 40592  79.8728 290.2339 0042427 129.6133 230.8824 14.70740999502346
Epoch: 2024-10-09T00:32Z
Definitive object data (Epoch: 2024-10-09T00:32:45.735Z)
Latitude-0.00008°
Longitude-96.08429°
Altitude680.553 km
Speed7.506 km/s
True Right ascension19h 20m 56s
True Declination0° 00' 00"
Sunlit
Object was in daylight at TLE epoch
Predictive object data (real-time)
Latitude73.60436°
Longitude-59.38352°
Altitude652.137 km
Speed7.548 km/s
Apparent Right ascension16h 49m 09s
Apparent Declination27° 46' 31"
Sunlit
Object is in daylight
Predictive observer data (real-time)
Local Sidereal Time03:16:54
Azimuth338.498° N
Elevation-18.987°
Doppler factor1
Orbital elements
Apogee685.713 km
Perigee626.026 km
Semi-major axis7,034.007 km
Eccentricity0.0042427
Inclination79.8728°
RAAN290.2339°
Arg. of periapsis129.6133°
True anomaly230.50646°
Mean anomaly230.8824°
Eccentric anomaly230.6943°
Mean motion3.67908 °/min
BSTAR0.039235
Period97.85 mins
No data available

SCOUT X-4 DEB Visibility forecast

Observer location: 39.9160978°, -105.1181434

SCOUT X-4 DEB is not visible in the next 10 days
Span
Click to sort rows by Start time (UTC) header in descending order
Start Az.
Max El. time (UTC)
Max El. Az.
Max El.
End time (UTC)
End Az.